CW9971 Weather Reports


time (UTC)temp
F
wind
direction
speed
knots
gust
knots
rain 1hr
in
rain 24hr
in
rain mn
in
humidity
%
barometer
mb
20260508203537 69 207 0.9 3.5 0.00 0.00 0.00 43 1011.7
20260508203056 68 311 0.9 4.3 0.00 0.00 0.00 38 1011.8
20260508202522 68 207 0.9 4.3 0.00 0.00 0.00 39 1011.9
20260508202041 69 290 0.9 6.1 0.00 0.00 0.00 45 1012.0
20260508201600 68 231 1.7 6.1 0.00 0.00 0.00 42 1012.2
20260508201026 68 166 2.6 7.0 0.00 0.00 0.00 39 1012.6
20260508200546 68 178 3.5 10.4 0.00 0.00 0.00 40 1012.8
20260508200012 68 124 2.6 10.4 0.00 0.00 0.00 39 1013.0
20260508195530 68 140 1.7 6.1 0.00 0.01 0.00 43 1013.1
20260508195052 68 200 1.7 6.1 0.00 0.01 0.00 42 1013.2
20260508194512 68 178 0.0 8.7 0.00 0.01 0.00 42 1013.0
20260508194029 68 57 0.9 8.7 0.00 0.01 0.00 40 1013.2
20260508193549 68 248 2.6 7.0 0.00 0.01 0.00 41 1013.2
20260508193016 67 298 2.6 7.0 0.00 0.01 0.00 39 1013.2
20260508192537 67 248 0.9 3.5 0.00 0.01 0.00 41 1013.3
20260508192056 66 348 0.9 6.1 0.00 0.01 0.00 44 1013.2
20260508191518 66 119 0.9 6.1 0.00 0.01 0.00 44 1013.4
20260508191037 66 250 0.9 7.8 0.00 0.01 0.00 45 1013.5
20260508190505 67 146 2.6 7.0 0.00 0.01 0.00 48 1013.6
20260508190032 67 146 0.9 6.1 0.00 0.01 0.00 46 1013.7
20260508185556 68 346 1.7 7.0 0.00 0.01 0.00 50 1013.9
20260508185014 67 304 4.3 7.0 0.00 0.01 0.00 48 1014.0
20260508184548 67 165 1.7 4.3 0.00 0.01 0.00 50 1014.1
20260508184101 66 294 0.9 5.2 0.00 0.01 0.00 44 1014.1
20260508183517 66 157 2.6 5.2 0.00 0.01 0.00 50 1014.2
20260508183043 65 147 0.9 4.3 0.00 0.01 0.00 48 1014.2
20260508182601 66 122 2.6 4.3 0.00 0.01 0.00 49 1014.2
20260508182019 65 321 1.7 4.3 0.00 0.01 0.00 48 1014.3
20260508181605 65 49 0.0 4.3 0.00 0.01 0.00 46 1014.4
20260508181010 65 173 0.0 4.3 0.00 0.01 0.00 52 1014.5
20260508180532 66 204 0.9 7.0 0.00 0.01 0.00 55 1014.6
20260508180105 66 208 3.5 7.0 0.00 0.01 0.00 51 1014.5
20260508175513 65 57 1.7 5.2 0.00 0.01 0.00 54 1014.6
20260508175042 64 92 3.5 5.2 0.00 0.01 0.00 49 1014.6
20260508174620 64 105 1.7 5.2 0.00 0.01 0.00 47 1014.7
20260508174029 64 218 1.7 3.5 0.00 0.01 0.00 48 1014.9
20260508173550 64 168 1.7 6.1 0.00 0.01 0.00 51 1015.0
20260508173006 63 105 2.6 7.0 0.00 0.01 0.00 46 1015.1
20260508172538 63 71 3.5 7.0 0.00 0.01 0.00 49 1015.2
20260508172100 63 117 3.5 7.0 0.00 0.01 0.00 49 1015.4
20260508171526 63 224 0.9 3.5 0.00 0.01 0.00 46 1015.4
20260508171049 62 248 0.9 4.3 0.00 0.01 0.00 51 1015.5
20260508170516 62 327 1.7 4.3 0.00 0.01 0.00 51 1015.7
20260508170038 62 346 0.9 6.1 0.00 0.01 0.00 47 1015.7
20260508165559 62 107 2.6 6.1 0.00 0.01 0.00 49 1015.9
20260508165027 62 29 1.7 5.2 0.00 0.01 0.00 51 1015.9
20260508164548 63 35 1.7 3.5 0.00 0.01 0.00 52 1016.0
20260508164014 61 325 1.7 3.5 0.00 0.01 0.00 50 1016.2
20260508163530 61 304 0.0 4.3 0.00 0.01 0.00 47 1016.2
20260508163052 62 173 0.9 4.3 0.00 0.01 0.00 44 1016.4
20260508162509 61 92 0.9 5.2 0.00 0.01 0.00 48 1016.4
20260508162033 61 240 1.7 5.2 0.00 0.01 0.00 48 1016.5
20260508161548 61 170 2.6 5.2 0.00 0.01 0.00 50 1016.6
20260508161020 61 107 1.7 3.5 0.00 0.01 0.00 49 1016.8
20260508160538 61 16 0.9 2.6 0.00 0.01 0.00 49 1016.9
20260508160007 60 181 0.9 3.5 0.00 0.01 0.00 52 1017.0
20260508155544 60 159 0.9 3.5 0.00 0.01 0.00 49 1017.1
20260508155100 61 317 0.9 3.5 0.00 0.01 0.00 61 1017.1
20260508154518 59 239 0.9 3.5 0.00 0.01 0.00 53 1017.1
20260508154038 60 262 1.7 3.5 0.00 0.01 0.00 57 1017.2
20260508153549 59 265 1.7 5.2 0.00 0.01 0.00 59 1017.2
20260508153004 60 211 3.5 6.1 0.00 0.01 0.00 58 1017.2
20260508152535 59 130 0.9 3.5 0.00 0.01 0.00 59 1017.2
20260508152051 59 186 0.9 3.5 0.00 0.01 0.00 61 1017.3
20260508151517 59 215 0.0 2.6 0.00 0.01 0.00 72 1017.2
20260508151031 59 146 0.9 5.2 0.00 0.01 0.00 68 1017.3
20260508150535 58 188 0.9 5.2 0.00 0.01 0.00 72 1017.3
20260508150054 57 227 1.7 3.5 0.00 0.01 0.00 70 1017.4
20260508145512 58 159 0.9 3.5 0.00 0.01 0.00 75 1017.3
20260508145037 57 66 0.9 3.5 0.00 0.01 0.00 77 1017.4
20260508144605 56 61 1.7 3.5 0.00 0.01 0.00 74 1017.4
20260508144016 55 39 0.0 3.5 0.00 0.01 0.00 76 1017.4
20260508143535 55 66 0.9 3.5 0.00 0.01 0.00 78 1017.5
20260508143058 54 118 0.9 3.5 0.00 0.01 0.00 83 1017.5
20260508142514 54 29 2.6 3.5 0.00 0.01 0.00 81 1017.4
20260508142042 53 87 0.9 3.5 0.00 0.01 0.00 82 1017.5
20260508141509 52 123 1.7 3.5 0.00 0.01 0.00 84 1017.3
20260508141026 52 238 1.7 4.3 0.00 0.01 0.00 83 1017.4
20260508140545 52 156 0.9 3.5 0.00 0.01 0.00 87 1017.4
20260508140005 52 184 0.9 2.6 0.00 0.01 0.00 88 1017.5
20260508135533 51 144 0.9 2.6 0.00 0.02 0.00 90 1017.5
20260508135052 50 57 0.0 2.6 0.00 0.02 0.00 91 1017.5
20260508134527 50 161 0.9 3.5 0.00 0.02 0.00 91 1017.4
20260508134038 49 246 0.0 3.5 0.00 0.02 0.00 93 1017.5
20260508133559 48 88 1.7 2.6 0.00 0.02 0.00 92 1017.5
20260508133017 48 139 0.9 2.6 0.00 0.02 0.00 94 1017.5
20260508132544 47 152 0.9 2.6 0.00 0.02 0.00 96 1017.5
20260508132002 46 140 0.9 2.6 0.00 0.02 0.00 97 1017.5
20260508131522 46 153 0.0 3.5 0.00 0.02 0.00 98 1017.5
20260508131044 45 104 0.9 3.5 0.00 0.02 0.00 98 1017.4
20260508130501 45 154 0.0 2.6 0.00 0.02 0.00 98 1017.4
20260508130022 45 80 0.9 2.6 0.00 0.02 0.00 99 1017.5
20260508125544 45 135 0.0 1.7 0.00 0.03 0.00 99 1017.4
20260508125102 44 101 0.0 1.7 0.00 0.03 0.00 99 1017.4
20260508124521 43 107 0.0 2.6 0.00 0.03 0.00 99 1017.4
20260508124053 43 102 0.0 2.6 0.00 0.03 0.00 98 1017.4
20260508123508 43 138 0.0 2.6 0.00 0.03 0.00 99 1017.3
20260508123037 43 80 0.9 2.6 0.00 0.03 0.00 99 1017.3
20260508122602 43 76 0.9 1.7 0.00 0.03 0.00 99 1017.3
20260508122028 43 109 0.0 0.9 0.00 0.03 0.00 99 1017.2
20260508121551 42 86 0.0 0.9 0.00 0.03 0.00 99 1017.2
20260508121008 41 85 0.0 1.7 0.00 0.03 0.00 99 1017.1
20260508120539 41 86 0.0 1.7 0.00 0.03 0.00 99 1017.0
20260508120057 41 85 0.0 1.7 0.00 0.03 0.00 99 1017.0
20260508115524 40 77 0.9 1.7 0.00 0.06 0.00 99 1016.9
20260508115046 40 355 0.0 0.9 0.00 0.06 0.00 99 1016.9
20260508114506 39 355 0.0 0.9 0.00 0.06 0.00 99 1016.9
20260508114029 39 355 0.0 0.0 0.00 0.06 0.00 99 1016.7
20260508113545 39 355 0.0 0.9 0.00 0.06 0.00 99 1016.7
20260508113003 38 355 0.0 0.9 0.00 0.06 0.00 99 1016.7
20260508112529 38 355 0.0 0.9 0.00 0.06 0.00 98 1016.6
20260508112051 37 355 0.0 1.7 0.00 0.06 0.00 98 1016.5
20260508111516 38 355 0.0 1.7 0.00 0.06 0.00 98 1016.3
20260508111041 37 355 0.9 1.7 0.00 0.06 0.00 98 1016.4
20260508110606 37 355 0.0 1.7 0.00 0.06 0.00 98 1016.4
20260508110018 37 355 0.9 1.7 0.00 0.06 0.00 98 1016.2
20260508105536 37 355 0.0 1.7 0.00 0.06 0.00 98 1016.2
20260508105055 36 355 0.0 0.9 0.00 0.06 0.00 98 1016.1
20260508104522 36 355 0.0 0.0 0.00 0.06 0.00 98 1016.0
20260508104045 36 355 0.0 0.0 0.00 0.06 0.00 98 1015.9
20260508103502 36 355 0.0 0.9 0.00 0.06 0.00 98 1015.9
20260508103036 36 355 0.0 0.9 0.00 0.06 0.00 98 1015.7
20260508102549 36 355 0.0 0.0 0.00 0.06 0.00 98 1015.6
20260508102007 36 355 0.0 0.9 0.00 0.06 0.00 98 1015.5
20260508101527 37 355 0.0 0.9 0.00 0.06 0.00 98 1015.5
20260508101048 37 355 0.0 0.9 0.00 0.06 0.00 98 1015.5
20260508100506 37 355 0.0 0.9 0.00 0.06 0.00 98 1015.4
20260508100035 37 355 0.0 0.9 0.00 0.06 0.00 98 1015.5
20260508095557 37 355 0.0 0.0 0.00 0.06 0.00 98 1015.5
20260508095029 37 355 0.0 0.9 0.00 0.06 0.00 98 1015.4
20260508094607 37 355 0.0 1.7 0.00 0.06 0.00 98 1015.4
20260508094004 37 355 0.0 0.9 0.00 0.06 0.00 98 1015.3
20260508093536 37 355 0.0 0.0 0.00 0.06 0.00 98 1015.3
20260508093058 37 355 0.0 0.0 0.00 0.06 0.00 98 1015.3
20260508092525 38 355 0.0 0.9 0.00 0.06 0.00 98 1015.3
20260508092045 38 355 0.0 0.9 0.00 0.06 0.00 98 1015.4
20260508091507 38 355 0.0 0.9 0.00 0.06 0.00 98 1015.3
20260508091023 38 355 0.0 0.9 0.00 0.06 0.00 98 1015.3
20260508090545 38 355 0.0 0.9 0.00 0.06 0.00 98 1015.3
20260508090004 38 355 0.0 0.0 0.00 0.06 0.00 98 1015.3
20260508085531 38 355 0.0 1.7 0.00 0.07 0.00 98 1015.2
20260508085050 39 355 0.0 1.7 0.00 0.07 0.00 98 1015.2
20260508084517 39 355 0.0 0.9 0.00 0.07 0.00 98 1015.1
20260508084039 39 355 0.0 1.7 0.00 0.07 0.00 98 1015.1
20260508083507 39 355 0.0 1.7 0.00 0.07 0.00 98 1015.1
20260508083038 39 355 0.0 1.7 0.00 0.07 0.00 98 1015.1
20260508082506 39 355 0.9 1.7 0.00 0.07 0.00 98 1015.1
20260508082037 39 301 0.0 1.7 0.00 0.07 0.00 98 1015.0
20260508081618 39 300 0.0 1.7 0.00 0.07 0.00 98 1014.9
20260508081026 39 307 0.0 1.7 0.00 0.07 0.00 98 1014.8
20260508080549 39 322 0.0 1.7 0.00 0.07 0.00 98 1014.7
20260508080013 39 322 0.9 1.7 0.00 0.07 0.00 98 1014.7
20260508075535 40 314 0.9 2.6 0.00 0.10 0.00 98 1014.8
20260508075052 40 325 0.9 2.6 0.00 0.10 0.00 98 1014.9
20260508074510 40 334 1.7 2.6 0.00 0.10 0.00 98 1014.8
20260508074037 40 317 0.0 0.9 0.00 0.10 0.00 98 1014.7
20260508073507 40 317 0.0 1.7 0.00 0.10 0.00 98 1014.7
20260508073041 40 317 0.0 1.7 0.00 0.10 0.00 98 1014.8
20260508072559 40 315 0.0 1.7 0.00 0.10 0.00 98 1014.9
20260508072027 40 295 0.0 1.7 0.00 0.10 0.00 98 1014.9
20260508071552 40 311 0.0 1.7 0.00 0.10 0.00 98 1014.8
20260508071018 40 317 0.0 0.9 0.00 0.10 0.00 98 1014.9
20260508070538 41 317 0.0 0.9 0.00 0.10 0.00 98 1014.8
20260508070007 41 322 0.0 1.7 0.00 0.10 0.00 98 1014.9
20260508065529 41 321 0.0 1.7 0.00 0.10 0.00 98 1014.9
20260508065049 41 308 0.0 0.9 0.00 0.10 0.00 98 1014.9
20260508064511 41 308 0.0 0.9 0.00 0.10 0.00 98 1014.9
20260508064030 41 308 0.0 0.9 0.00 0.10 0.00 98 1015.0
20260508063548 41 308 0.0 0.9 0.00 0.10 0.00 98 1014.9
20260508063017 41 308 0.0 1.7 0.00 0.10 0.00 98 1014.8
20260508062536 41 309 0.0 1.7 0.00 0.10 0.00 98 1014.9
20260508062059 41 303 0.0 0.9 0.00 0.10 0.00 98 1014.9
20260508061526 41 302 0.0 0.9 0.00 0.10 0.00 98 1014.8
20260508061048 41 298 0.0 0.9 0.00 0.10 0.00 98 1014.7
20260508060514 41 292 0.0 0.9 0.00 0.10 0.00 98 1014.9
20260508060037 41 292 0.0 0.9 0.00 0.10 0.00 98 1014.9
20260508055505 41 292 0.0 0.9 0.00 0.11 0.00 98 1014.9
20260508055026 42 306 0.0 0.9 0.00 0.11 0.00 98 1014.8
20260508054546 42 306 0.0 0.9 0.00 0.11 0.00 98 1014.8
20260508054004 42 306 0.0 0.0 0.00 0.11 0.00 98 1014.8
20260508053526 42 306 0.0 0.9 0.00 0.11 0.00 98 1014.9
20260508053046 42 306 0.0 0.9 0.00 0.11 0.00 98 1014.9
20260508052510 42 306 0.0 0.9 0.00 0.11 0.00 98 1014.9
20260508052037 42 306 0.0 0.9 0.00 0.11 0.00 98 1014.8
20260508051557 42 306 0.0 1.7 0.00 0.11 0.00 98 1014.9
20260508051022 43 306 0.0 1.7 0.00 0.11 0.00 98 1014.9
20260508050541 43 297 0.0 1.7 0.00 0.11 0.00 98 1014.8
20260508050100 43 296 0.9 1.7 0.00 0.11 0.00 98 1014.7
20260508045520 43 311 0.0 1.7 0.00 0.11 0.00 98 1014.7
20260508045039 43 320 0.0 1.7 0.00 0.11 0.00 98 1014.6
20260508044507 43 320 0.0 1.7 0.00 0.11 0.00 98 1014.6
20260508044027 43 320 0.0 0.0 0.00 0.11 0.00 98 1014.5
20260508043547 43 320 0.0 0.0 0.00 0.11 0.00 98 1014.5
20260508042514 44 320 0.0 1.7 0.00 0.11 0.00 98 1014.4
20260508042040 44 320 0.0 1.7 0.00 0.11 0.00 98 1014.3
20260508041600 44 307 0.0 0.9 0.00 0.11 0.00 98 1014.3
20260508041027 44 307 0.0 0.0 0.00 0.11 0.00 98 1014.2
20260508040547 44 307 0.0 1.7 0.00 0.11 0.00 98 1014.2
20260508040015 45 307 0.0 1.7 0.00 0.11 0.00 98 1014.1
20260508035533 45 308 0.0 1.7 0.00 0.12 0.11 98 1014.0
20260508035005 45 323 0.9 1.7 0.00 0.12 0.11 98 1014.0
20260508034525 45 313 0.9 1.7 0.00 0.12 0.11 98 1014.0
20260508034046 45 313 0.0 0.9 0.00 0.12 0.11 98 1013.9
20260508033504 45 313 0.0 0.9 0.00 0.12 0.11 98 1013.8
20260508033024 45 313 0.0 0.9 0.00 0.12 0.11 98 1013.8
20260508032536 45 313 0.0 0.9 0.00 0.12 0.11 98 1014.0
20260508032058 46 313 0.0 0.0 0.00 0.12 0.11 98 1014.0
20260508031518 46 313 0.0 0.0 0.00 0.12 0.11 98 1014.0
20260508031039 46 313 0.0 1.7 0.00 0.12 0.11 98 1014.0
20260508030512 46 313 0.0 1.7 0.00 0.12 0.11 98 1013.9
20260508030029 46 313 0.0 2.6 0.00 0.12 0.11 98 1013.9
20260508025551 47 309 0.9 2.6 0.00 0.12 0.11 98 1013.7
20260508025005 47 317 0.0 0.9 0.00 0.12 0.11 98 1013.6
20260508024541 47 317 0.0 0.9 0.00 0.12 0.11 97 1013.5
20260508024046 47 317 0.0 0.9 0.00 0.12 0.11 98 1013.5
20260508023504 48 317 0.0 0.9 0.00 0.12 0.11 98 1013.4
20260508023032 47 333 0.0 1.7 0.00 0.12 0.11 97 1013.3
20260508022551 47 333 0.0 1.7 0.00 0.12 0.11 97 1013.2
20260508022010 48 333 0.0 0.0 0.00 0.12 0.11 97 1013.2
20260508021529 48 333 0.0 2.6 0.00 0.12 0.11 97 1013.2
20260508021048 48 333 0.0 2.6 0.00 0.12 0.11 97 1013.1
20260508020508 49 309 0.0 2.6 0.00 0.12 0.11 97 1013.1
20260508020036 49 309 0.9 2.6 0.00 0.12 0.11 97 1013.0
20260508015557 49 294 0.0 2.6 0.00 0.12 0.11 97 1013.0
20260508015014 49 298 0.9 2.6 0.00 0.12 0.11 97 1012.9
20260508014541 50 316 0.9 2.6 0.00 0.12 0.11 97 1012.7
20260508014054 50 300 0.9 2.6 0.00 0.12 0.11 97 1012.7
20260508013522 50 317 0.9 2.6 0.00 0.12 0.11 97 1012.6
20260508013045 50 308 0.0 3.5 0.00 0.12 0.11 97 1012.5
20260508012509 51 315 0.9 3.5 0.00 0.12 0.11 97 1012.4
20260508012041 50 323 1.7 2.6 0.00 0.12 0.11 96 1012.3
20260508011505 51 324 0.0 2.6 0.00 0.12 0.11 97 1012.2
20260508011025 51 323 0.0 2.6 0.00 0.12 0.11 96 1012.1
20260508010545 51 317 0.9 1.7 0.00 0.12 0.11 96 1012.0
20260508010003 51 311 0.0 1.7 0.00 0.12 0.11 96 1011.9
20260508005525 51 294 0.0 0.9 0.00 0.31 0.11 96 1011.9
20260508005049 51 294 0.0 0.0 0.00 0.31 0.11 96 1011.8
20260508004504 52 294 0.0 0.0 0.00 0.31 0.11 96 1011.7
20260508004034 52 294 0.0 0.9 0.00 0.31 0.11 96 1011.7
20260508003556 52 294 0.0 0.9 0.00 0.31 0.11 95 1011.7
20260508003023 52 294 0.0 0.9 0.00 0.31 0.11 95 1011.5
20260508002547 52 294 0.0 0.0 0.00 0.31 0.11 95 1011.4
20260508002004 53 294 0.0 0.0 0.00 0.31 0.11 94 1011.4
20260508001526 53 294 0.0 0.0 0.00 0.31 0.11 94 1011.2
20260508001048 53 294 0.0 0.0 0.00 0.31 0.11 93 1011.2
20260508000520 53 294 0.0 0.9 0.00 0.31 0.11 92 1011.3
20260508000042 54 294 0.0 1.7 0.00 0.31 0.11 92 1011.3
20260507235601 54 294 0.0 1.7 0.00 0.38 0.11 91 1011.3
20260507235022 54 285 0.0 1.7 0.00 0.38 0.11 90 1011.3
20260507234542 55 277 0.0 1.7 0.00 0.38 0.11 89 1011.3
20260507234002 55 277 0.0 1.7 0.00 0.38 0.11 88 1011.2
20260507233522 56 259 0.0 2.6 0.00 0.38 0.11 87 1011.3
20260507233047 57 259 0.0 2.6 0.00 0.38 0.11 85 1011.2
20260507232505 58 298 0.0 1.7 0.00 0.38 0.11 81 1011.2
20260507232034 58 267 0.0 1.7 0.00 0.38 0.11 81 1011.3
20260507231559 58 262 0.0 2.6 0.00 0.38 0.11 82 1011.3
20260507231027 58 250 0.9 3.5 0.00 0.38 0.11 80 1011.4
20260507230546 58 275 0.9 2.6 0.00 0.38 0.11 83 1011.4
20260507230005 58 333 0.9 2.6 0.00 0.38 0.11 81 1011.3
20260507225524 58 274 0.9 2.6 0.00 0.38 0.11 82 1011.4
20260507225045 58 321 0.0 1.7 0.00 0.38 0.11 82 1011.4
20260507224505 58 321 0.0 1.7 0.00 0.38 0.11 84 1011.5
20260507224026 57 321 0.0 0.9 0.00 0.38 0.11 87 1011.4
20260507223555 57 321 0.0 0.9 0.00 0.38 0.11 87 1011.4
20260507223014 57 321 0.0 0.9 0.00 0.38 0.11 87 1011.5
20260507222543 57 321 0.0 1.7 0.00 0.38 0.11 87 1011.3
20260507222001 58 321 0.0 1.7 0.00 0.38 0.11 87 1011.2
20260507221538 58 321 0.0 2.6 0.00 0.38 0.11 85 1011.2
20260507221054 58 328 0.0 2.6 0.00 0.38 0.11 83 1011.1
20260507220523 59 323 0.0 2.6 0.00 0.38 0.11 79 1010.9
20260507220046 60 262 0.0 1.7 0.00 0.38 0.11 78 1011.0
20260507215507 61 330 0.9 2.6 0.00 0.38 0.11 70 1011.0
20260507215034 60 360 0.9 2.6 0.00 0.38 0.11 65 1010.9
20260507214603 60 295 0.9 3.5 0.00 0.38 0.11 71 1010.9
20260507214024 60 308 1.7 3.5 0.00 0.38 0.11 77 1010.9
20260507213544 60 247 0.9 4.3 0.00 0.38 0.11 73 1010.8
20260507213104 61 244 0.9 4.3 0.00 0.38 0.11 77 1010.6
20260507212528 60 67 0.0 5.2 0.00 0.38 0.11 79 1010.6
20260507212053 59 130 1.7 5.2 0.00 0.38 0.11 81 1010.6
20260507211523 59 99 0.0 3.5 0.00 0.38 0.11 83 1010.6
20260507211039 59 209 0.9 3.5 0.00 0.38 0.11 80 1010.7
20260507210603 59 245 1.7 3.5 0.00 0.38 0.11 83 1010.7
20260507210031 59 160 0.9 3.5 0.00 0.38 0.11 83 1010.7
20260507205551 58 192 0.9 3.5 0.00 0.38 0.11 83 1010.8
20260507205009 58 198 0.9 4.3 0.00 0.38 0.11 83 1010.8
20260507204530 58 235 0.9 4.3 0.00 0.38 0.11 82 1010.7
20260507204054 58 150 0.9 2.6 0.00 0.38 0.11 83 1010.7